| time (UTC) | temp C | wind direction | speed KPH | gust KPH | rain 1hr cm | rain 24hr cm | rain mn cm | humidity % | barometer mb |
| 20260507191600 | 23 | 160 | 4.8 | 17.7 | 0.00 | 0.00 | 0.00 | 35 | 1014.2 |
| 20260507190104 | 23 | 175 | 1.6 | 12.9 | 0.00 | 0.00 | 0.00 | 36 | 1014.3 |
| 20260507184556 | 22 | 143 | 3.2 | 16.1 | 0.00 | 0.00 | 0.00 | 38 | 1014.5 |
| 20260507183100 | 22 | 164 | 3.2 | 12.9 | 0.00 | 0.00 | 0.00 | 38 | 1014.7 |
| 20260507181557 | 21 | 275 | 4.8 | 11.3 | 0.00 | 0.00 | 0.00 | 41 | 1015.0 |
| 20260507180105 | 20 | 118 | 4.8 | 17.7 | 0.00 | 0.00 | 0.00 | 42 | 1015.3 |
| 20260507174559 | 20 | 129 | 3.2 | 20.9 | 0.00 | 0.00 | 0.00 | 43 | 1015.4 |
| 20260507173058 | 20 | 207 | 3.2 | 17.7 | 0.00 | 0.00 | 0.00 | 45 | 1015.8 |
| 20260507171604 | 19 | 137 | 3.2 | 19.3 | 0.00 | 0.00 | 0.00 | 47 | 1015.9 |
| 20260507170100 | 18 | 319 | 3.2 | 17.7 | 0.00 | 0.00 | 0.00 | 45 | 1016.3 |
| 20260507164559 | 18 | 174 | 4.8 | 16.1 | 0.00 | 0.00 | 0.00 | 46 | 1016.6 |
| 20260507163105 | 17 | 125 | 3.2 | 16.1 | 0.00 | 0.00 | 0.00 | 49 | 1017.0 |
| 20260507161605 | 17 | 129 | 3.2 | 17.7 | 0.00 | 0.00 | 0.00 | 50 | 1016.9 |
| 20260507160103 | 16 | 133 | 1.6 | 12.9 | 0.00 | 0.00 | 0.00 | 53 | 1017.1 |
| 20260507154559 | 15 | 238 | 3.2 | 17.7 | 0.00 | 0.00 | 0.00 | 56 | 1017.1 |
| 20260507153100 | 14 | 146 | 1.6 | 17.7 | 0.00 | 0.00 | 0.00 | 58 | 1017.2 |
| 20260507151559 | 13 | 119 | 3.2 | 11.3 | 0.00 | 0.00 | 0.00 | 62 | 1017.4 |
| 20260507150100 | 12 | 124 | 3.2 | 12.9 | 0.00 | 0.00 | 0.00 | 63 | 1017.5 |
| 20260507144559 | 12 | 287 | 3.2 | 16.1 | 0.00 | 0.00 | 0.00 | 66 | 1017.7 |
| 20260507143102 | 11 | 164 | 1.6 | 9.7 | 0.00 | 0.00 | 0.00 | 71 | 1017.8 |
| 20260507141602 | 11 | 186 | 3.2 | 11.3 | 0.00 | 0.00 | 0.00 | 72 | 1018.1 |
| 20260507140121 | 10 | 248 | 0.0 | 9.7 | 0.00 | 0.00 | 0.00 | 77 | 1018.2 |
| 20260507134559 | 10 | 0 | 0.0 | 9.7 | 0.00 | 0.00 | 0.00 | 78 | 1018.2 |
| 20260507133059 | 10 | 200 | 1.6 | 6.4 | 0.00 | 0.00 | 0.00 | 80 | 1018.5 |
| 20260507131609 | 9 | 212 | 1.6 | 6.4 | 0.00 | 0.00 | 0.00 | 81 | 1018.5 |
| 20260507130112 | 8 | 203 | 0.0 | 6.4 | 0.00 | 0.00 | 0.00 | 85 | 1018.6 |
| 20260507124614 | 6 | 162 | 0.0 | 4.8 | 0.00 | 0.00 | 0.00 | 91 | 1018.5 |
| 20260507123106 | 5 | 0 | 0.0 | 4.8 | 0.00 | 0.00 | 0.00 | 92 | 1018.4 |
| 20260507121557 | 4 | 0 | 0.0 | 1.6 | 0.00 | 0.00 | 0.00 | 92 | 1018.4 |
| 20260507120059 | 4 | 0 | 0.0 | 0.0 | 0.00 | 0.00 | 0.00 | 92 | 1018.4 |
| 20260507114606 | 3 | 0 | 0.0 | 0.0 | 0.00 | 0.00 | 0.00 | 92 | 1018.3 |
| 20260507113103 | 3 | 0 | 0.0 | 1.6 | 0.00 | 0.00 | 0.00 | 91 | 1018.5 |
| 20260507111606 | 3 | 0 | 0.0 | 0.0 | 0.00 | 0.00 | 0.00 | 90 | 1018.5 |
| 20260507110110 | 4 | 0 | 0.0 | 1.6 | 0.00 | 0.00 | 0.00 | 90 | 1018.6 |
| 20260507104600 | 4 | 0 | 0.0 | 3.2 | 0.00 | 0.00 | 0.00 | 89 | 1018.5 |
| 20260507103059 | 5 | 0 | 0.0 | 1.6 | 0.00 | 0.00 | 0.00 | 89 | 1018.6 |
| 20260507101604 | 5 | 0 | 0.0 | 0.0 | 0.00 | 0.00 | 0.00 | 88 | 1018.6 |
| 20260507100059 | 5 | 0 | 0.0 | 3.2 | 0.00 | 0.00 | 0.00 | 88 | 1018.6 |
| 20260507094600 | 5 | 0 | 0.0 | 1.6 | 0.00 | 0.03 | 0.00 | 88 | 1018.8 |
| 20260507093101 | 5 | 0 | 0.0 | 1.6 | 0.00 | 0.03 | 0.00 | 87 | 1019.0 |
| 20260507091601 | 6 | 0 | 0.0 | 1.6 | 0.00 | 0.03 | 0.00 | 87 | 1019.0 |
| 20260507090100 | 6 | 0 | 0.0 | 1.6 | 0.00 | 0.03 | 0.00 | 87 | 1019.2 |
| 20260507084559 | 6 | 0 | 0.0 | 3.2 | 0.00 | 0.03 | 0.00 | 87 | 1019.2 |
| 20260507083103 | 6 | 0 | 0.0 | 3.2 | 0.00 | 0.03 | 0.00 | 86 | 1019.5 |
| 20260507081558 | 6 | 0 | 0.0 | 0.0 | 0.00 | 0.03 | 0.00 | 85 | 1019.7 |
| 20260507080134 | 6 | 0 | 0.0 | 1.6 | 0.00 | 0.03 | 0.00 | 85 | 1019.9 |
| 20260507074605 | 6 | 0 | 0.0 | 3.2 | 0.00 | 0.03 | 0.00 | 84 | 1020.0 |
| 20260507073118 | 6 | 0 | 0.0 | 0.0 | 0.00 | 0.03 | 0.00 | 83 | 1020.0 |
| 20260507071613 | 7 | 291 | 0.0 | 1.6 | 0.00 | 0.03 | 0.00 | 82 | 1019.9 |
| 20260507070057 | 7 | 0 | 0.0 | 3.2 | 0.00 | 0.03 | 0.00 | 81 | 1020.3 |
| 20260507064559 | 7 | 0 | 0.0 | 1.6 | 0.00 | 0.03 | 0.00 | 82 | 1020.3 |
| 20260507063101 | 7 | 0 | 0.0 | 0.0 | 0.00 | 0.03 | 0.00 | 83 | 1020.5 |
| 20260507061558 | 7 | 0 | 0.0 | 0.0 | 0.00 | 0.03 | 0.00 | 82 | 1020.7 |
| 20260507060103 | 7 | 0 | 0.0 | 0.0 | 0.00 | 0.03 | 0.00 | 81 | 1020.6 |
| 20260507054607 | 7 | 0 | 0.0 | 0.0 | 0.00 | 0.15 | 0.00 | 78 | 1020.5 |
| 20260507053101 | 8 | 0 | 0.0 | 0.0 | 0.00 | 0.15 | 0.00 | 76 | 1020.5 |
| 20260507051601 | 9 | 0 | 0.0 | 1.6 | 0.00 | 0.15 | 0.00 | 76 | 1020.5 |
| 20260507044618 | 8 | 0 | 0.0 | 1.6 | 0.00 | 0.23 | 0.15 | 75 | 1020.6 |
| 20260507043059 | 8 | 0 | 0.0 | 0.0 | 0.00 | 0.23 | 0.15 | 73 | 1020.5 |
| 20260507041605 | 9 | 0 | 0.0 | 0.0 | 0.00 | 0.23 | 0.15 | 73 | 1020.5 |
| 20260507040112 | 9 | 0 | 0.0 | 0.0 | 0.00 | 0.23 | 0.15 | 75 | 1020.3 |
| 20260507034605 | 9 | 0 | 0.0 | 0.0 | 0.00 | 0.23 | 0.15 | 72 | 1020.4 |
| 20260507033058 | 9 | 0 | 0.0 | 0.0 | 0.00 | 0.23 | 0.15 | 72 | 1020.6 |
| 20260507031602 | 9 | 0 | 0.0 | 0.0 | 0.00 | 0.23 | 0.15 | 72 | 1020.6 |
| 20260507030105 | 9 | 0 | 0.0 | 0.0 | 0.00 | 0.23 | 0.15 | 72 | 1020.5 |
| 20260507024557 | 10 | 0 | 0.0 | 0.0 | 0.00 | 0.43 | 0.15 | 69 | 1020.3 |
| 20260507023059 | 10 | 0 | 0.0 | 0.0 | 0.00 | 0.43 | 0.15 | 67 | 1020.0 |
| 20260507021559 | 11 | 0 | 0.0 | 0.0 | 0.00 | 0.43 | 0.15 | 63 | 1019.8 |
| 20260507020104 | 12 | 0 | 0.0 | 1.6 | 0.00 | 0.43 | 0.15 | 59 | 1019.8 |
| 20260507014608 | 12 | 0 | 0.0 | 1.6 | 0.00 | 0.43 | 0.15 | 58 | 1019.7 |
| 20260507013057 | 12 | 0 | 0.0 | 1.6 | 0.00 | 0.43 | 0.15 | 57 | 1019.6 |
| 20260507011604 | 13 | 0 | 0.0 | 1.6 | 0.00 | 0.43 | 0.15 | 56 | 1019.4 |
| 20260507010057 | 13 | 0 | 1.6 | 4.8 | 0.00 | 0.43 | 0.15 | 54 | 1019.2 |
| 20260507004559 | 13 | 13 | 1.6 | 6.4 | 0.00 | 0.43 | 0.15 | 51 | 1019.2 |
| 20260507003059 | 13 | 285 | 0.0 | 4.8 | 0.00 | 0.43 | 0.15 | 51 | 1019.1 |
| 20260507001615 | 13 | 266 | 1.6 | 6.4 | 0.00 | 0.43 | 0.15 | 51 | 1019.1 |
| 20260507000101 | 13 | 276 | 1.6 | 6.4 | 0.00 | 0.43 | 0.15 | 52 | 1019.0 |
| 20260506234606 | 13 | 28 | 1.6 | 8.0 | 0.00 | 0.43 | 0.15 | 51 | 1019.2 |
| 20260506233059 | 13 | 1 | 1.6 | 8.0 | 0.00 | 0.43 | 0.15 | 52 | 1019.4 |
| 20260506231558 | 13 | 60 | 3.2 | 9.7 | 0.00 | 0.43 | 0.15 | 51 | 1019.3 |
| 20260506230059 | 14 | 37 | 3.2 | 6.4 | 0.00 | 0.43 | 0.15 | 52 | 1019.0 |
| 20260506224559 | 14 | 50 | 3.2 | 9.7 | 0.00 | 0.43 | 0.15 | 50 | 1019.2 |
| 20260506223058 | 13 | 328 | 3.2 | 9.7 | 0.00 | 0.43 | 0.15 | 52 | 1019.2 |
| 20260506221557 | 14 | 23 | 1.6 | 8.0 | 0.00 | 0.43 | 0.15 | 53 | 1019.1 |
| 20260506220107 | 13 | 67 | 4.8 | 9.7 | 0.00 | 0.43 | 0.15 | 52 | 1019.1 |
| 20260506214557 | 14 | 34 | 3.2 | 9.7 | 0.00 | 0.43 | 0.15 | 52 | 1019.2 |
| 20260506213102 | 13 | 32 | 4.8 | 12.9 | 0.00 | 0.43 | 0.15 | 53 | 1019.2 |
| 20260506211557 | 14 | 286 | 4.8 | 9.7 | 0.00 | 0.43 | 0.15 | 51 | 1019.3 |
| 20260506210120 | 14 | 94 | 3.2 | 12.9 | 0.00 | 0.43 | 0.15 | 51 | 1019.3 |
| 20260506204558 | 14 | 299 | 3.2 | 8.0 | 0.00 | 0.43 | 0.15 | 52 | 1019.5 |
| 20260506203143 | 13 | 309 | 4.8 | 12.9 | 0.00 | 0.43 | 0.15 | 52 | 1019.7 |
| 20260506201604 | 14 | 300 | 0.0 | 9.7 | 0.00 | 0.43 | 0.15 | 51 | 1019.8 |
| 20260506200107 | 13 | 71 | 4.8 | 11.3 | 0.00 | 0.43 | 0.15 | 53 | 1019.8 |
| 20260506194559 | 14 | 41 | 3.2 | 12.9 | 0.00 | 0.43 | 0.15 | 54 | 1019.9 |
| 20260506193058 | 13 | 29 | 3.2 | 11.3 | 0.00 | 0.43 | 0.15 | 53 | 1020.0 |